Weather Roundup
Issued by NWS Chicago, IL

Home | Current Version | Previous Version | Text Only | Print | Product List | Glossary Off
Versions: 1 2 3 4 5 6 7 8 9 10 11 12 13 14 15 16 17 18 19 20 21 22 23 24 25 26 27 28 29 30 31 32 33 34 35 36 37 38 39 40 41 42 43 44 45 46 47 48 49 50

000
NZUS59 KLOT 200703
HRRLOT

CHICAGO AREA WEATHER ROUNDUP
NATIONAL WEATHER SERVICE CHICAGO/ROMEOVILLE IL
200 AM CDT SUN AUG 20 2017

NOTE: "FAIR" INDICATES FEW OR NO CLOUDS BELOW 12,000 FEET WITH NO
SIGNIFICANT WEATHER AND/OR OBSTRUCTIONS TO VISIBILITY.

* THESE STATIONS ARE NOT UNDER NWS QUALITY CONTROL. THEY ALSO MAY NOT
  REPORT WEATHER SUCH AS PRECIPITATION OR FOG.

ILZ005-006-012>014-019>023-200800-
NORTHEAST ILLINOIS

CITY           SKY/WX    TMP DP  RH WIND       PRES   REMARKS
OHARE          CLEAR     67  56  67 CALM      30.00S
MIDWAY         CLEAR     71  57  61 S5        30.01R
AURORA         CLEAR     57  57 100 CALM      30.02R
LANSING*       CLEAR     61  56  83 CALM      30.02R
JOLIET*        CLEAR     62  62  99 CALM      30.01S
WAUKEGAN       CLEAR     61  59  93 CALM      30.00S
DUPAGE AIRPORT CLEAR     61  61 100 CALM      30.01R
WHEELING       CLEAR     64  60  87 CALM      30.02S
MORRIS*        CLEAR     61  59  93 CALM      30.00S
NORTHERLY ISL    N/A     71  54  54 S3          N/A
$$

WIZ051-052-058>065-066-070>072-200800-
SOUTHEAST WISCONSIN

CITY           SKY/WX    TMP DP  RH WIND       PRES   REMARKS
MILWAUKEE      CLEAR     67  58  72 SW6       30.01R
KENOSHA*       CLEAR     62  56  80 CALM      30.01R
RACINE*        CLEAR     66  58  75 SW6       30.02R
$$

INZ001>003-010>013-019-020-200800-
NORTHWEST INDIANA

CITY           SKY/WX    TMP DP  RH WIND       PRES   REMARKS
GARY*          CLEAR     65  58  79 SE5       30.02S
MICHIGAN CITY* NOT AVBL
RENSSELAER*    NOT AVBL
VALPARAISO     CLEAR     60  57  89 NE3       30.03S
$$

LMZ740>746-200800-
SOUTHERN LAKE MICHIGAN

STATION/POSITION TIME  SKY/WX   TEMP WIND        PRES    VSBY
                                AIR  DIR/SP/G
                 (UTC)          (F)  (DEG/KT/KT) (MB)    (MI)
HARRISON CRIB    0640            74  190/  8/  8   N/A
BURNHAM HARBOR   NOT AVBL
CALUMET HARBOR   0630            70  170/  3/  3 1015.6S
BURNS HARBOR     0640            71  140/  9/ 11 1016.9R
MICHIGAN CITY    0640            66  130/  9/  9   N/A
$$

ABBREVIATIONS USED IN REMARKS
   TC - TEMPERATURE IN CELSIUS
  WCI - WIND CHILL INDEX
   HX - HEAT INDEX
  VSB - VISIBILITY
$$




USA.gov is the U.S. government's official web portal to all federal, state and local government web resources and services.